Regional Weather Roundup
Issued by NWS

Home | Current Version | Previous Version | Graphics & Text | Print | Product List | Glossary On
Versions: 1 2 3 4 5 6 7 8 9 10 11 12 13 14 15 16 17 18 19 20 21 22 23 24 25 26 27 28 29 30 31 32 33 34 35 36 37 38 39 40 41 42 43 44 45 46 47 48 49 50
046
ASUS45 KCYS 181410
RWRWY

WYOMING REGIONAL WEATHER ROUNDUP
NATIONAL WEATHER SERVICE CHEYENNE WY
800 AM MDT MON SEP 18 2017

NOTE:  "FAIR" INDICATES FEW OR NO CLOUDS BELOW 12,000 FEET
WITH NO SIGNIFICANT WEATHER AND/OR OBSTRUCTIONS TO VISIBILITY.

WYZ001-181500-
YELLOWSTONE NATIONAL PARK

CITY           SKY/WX    TMP DP  RH WIND       PRES   REMARKS
LK YELLOWSTONE   N/A     30  30 100 CALM      30.05S
W YELLOWSTONE  NOT AVBL

$$
WYZ002>013-054>058-071-098>099-181500-
NORTHERN WYOMING

CITY           SKY/WX    TMP DP  RH WIND       PRES   REMARKS
JACKSON        FAIR      34  30  85 N5        30.04R WCI  30
CODY           FAIR      46  34  62 S7        29.91F
GREYBULL       FAIR      41  39  93 CALM      29.90S
WORLAND        FAIR      39  38  96 CALM      29.89F
SHERIDAN       FAIR      43  37  79 N6        29.87S
BUFFALO        FAIR      54  27  35 CALM      29.91F
GILLETTE       FAIR      51  38  60 VRB3      29.90F
HULETT         FAIR      46  34  61 CALM      29.92F
NEWCASTLE      FAIR      46  39  76 E3        29.95S

$$
WYZ014>020-022>026-101>103-181500-
CENTRAL WYOMING

CITY           SKY/WX    TMP DP  RH WIND       PRES   REMARKS
BIG PINEY      FAIR      31  28  89 CALM      30.10S
PINEDALE       FAIR      30  28  93 CALM      30.10R
DUBOIS         FAIR      37  28  70 NW9       30.02S WCI  31
LANDER           N/A    N/A N/A N/A MISG      29.96F
RIVERTON       FAIR      43  38  82 CALM      29.97F
CASPER         FAIR      51  33  50 SW14      29.99S
DOUGLAS        FAIR      40  35  83 CALM      30.00F

$$
WYZ021-027>030-104>119-181500-
SOUTHERN WYOMING

CITY           SKY/WX    TMP DP  RH WIND       PRES   REMARKS
EVANSTON       FAIR      46  32  58 SW5       30.08S
KEMMERER         N/A     34  30  86 N8        30.09S WCI  27
FORT BRIDGER   FAIR      47  34  60 CALM      30.11S
ROCK SPRINGS   FAIR      45  33  63 E3        30.09S
DIXON          FAIR      39  35  87 SE6       30.15S WCI  34
RAWLINS        FAIR      49  37  63 SW3       30.10S
SARATOGA       FAIR      45  34  65 SE7       30.13S
LARAMIE        FAIR      42  33  70 S9        30.14S
CHEYENNE       FAIR      50  36  58 W8        30.09F
TORRINGTON     FOG       44  44 100 CALM      29.98S VSB<1/4
PINE BLUFFS    PTSUNNY   45  45 100 MISG      30.07S FOG

$$




USA.gov is the U.S. government's official web portal to all federal, state and local government web resources and services.